Regional Weather Roundup
Issued by NWS

Home | Current Version | Previous Version | Text Only | Print | Product List | Glossary Off
Versions: 1 2 3 4 5 6 7 8 9 10 11 12 13 14 15 16 17 18 19 20 21 22 23 24 25 26 27 28 29 30 31 32 33 34 35 36 37 38 39 40 41 42 43 44 45 46 47 48 49 50

139
ASUS43 KLOT 250009
RWRIL

ILLINOIS REGIONAL WEATHER ROUNDUP
NATIONAL WEATHER SERVICE CHICAGO/ROMEOVILLE IL
700 PM CDT WED AUG 24 2016

NOTE: "FAIR" INDICATES FEW OR NO CLOUDS BELOW 12,000 FEET WITH NO
SIGNIFICANT WEATHER AND/OR OBSTRUCTIONS TO VISIBILITY.

* THESE STATIONS ARE NOT UNDER NWS QUALITY CONTROL. THEY ALSO MAY NOT
  REPORT WEATHER SUCH AS PRECIPITATION OR FOG.

ILZ001-002-007-009-015-016-024-250100-
NORTHWEST ILLINOIS

CITY           SKY/WX    TMP DP  RH WIND       PRES   REMARKS
MOLINE         CLOUDY    82  71  69 W6        29.95S HX  86
6HR MIN TEMP:  82; 6HR MAX TEMP:  87;

STERLING*      CLEAR     81  73  76 W7        29.96R HX  86
SAVANNA*       CLEAR     82  69  65 SW6       29.94S HX  85
$$

ILZ003-004-008-010-011-017-018-250100-
NORTH CENTRAL ILLINOIS

CITY           SKY/WX    TMP DP  RH WIND       PRES   REMARKS
ROCKFORD       MOCLDY    83  71  67 SW8       29.95S HX  87
6HR MIN TEMP:  77; 6HR MAX TEMP:  85;

FREEPORT*      PTCLDY    80  73  78 SW6       29.96S HX  84
ROCHELLE*      PTCLDY    80  73  80 SW3       29.96R HX  84
DE KALB*       CLEAR     81  73  78 W8        29.97R HX  85
$$

ILZ005-006-012>014-019>023-250100-
NORTHEAST ILLINOIS

CITY           SKY/WX    TMP DP  RH WIND       PRES   REMARKS
CHICAGO-OHARE  PTCLDY    82  71  69 W8        29.94R HX  86
6HR MIN TEMP:  77; 6HR MAX TEMP:  84;

CHICAGO-MIDWAY MOCLDY    84  70  62 W8        29.94R HX  88
6HR MIN TEMP:  78; 6HR MAX TEMP:  85;

AURORA         PTCLDY    82  73  74 W7        29.96R HX  87
6HR MIN TEMP:  79; 6HR MAX TEMP:  84;

LANSING*       CLEAR     81  70  71 W8        29.96R HX  84
JOLIET*        PTCLDY    83  74  74 W6        29.96R HX  89
WAUKEGAN       CLEAR     81  72  74 W3        29.92R HX  85
6HR MIN TEMP:  76; 6HR MAX TEMP:  83;

DUPAGE AIRPORT CLEAR     82  72  71 W9        29.95R HX  87
6HR MIN TEMP:  76; 6HR MAX TEMP:  84;

KANKAKEE*      CLEAR     80  71  74 SW5       29.98R HX  84
WHEELING       CLEAR     82  71  69 W8        29.95R HX  86
6HR MIN TEMP:  77; 6HR MAX TEMP:  84;

MORRIS*        MOCLDY    81  72  75 CALM      29.96R HX  85
ROMEOVILLE*    PTCLDY    80  71  73 W7        29.96R HX  83
NORTHERLY ISL    N/A     83  68  60 W6          N/A  HX  86
$$

LMZ740>746-250100-
SOUTHERN LAKE MICHIGAN

STATION/POSITION SKY/WX   TEMP    WIND        PRES    VSBY  WAVE
                          AIR SEA DIR/SP/G                  HT/PER
                          (F)     (DEG/KT/KT) (MB)    (MI)  (FT/S)
SOUTHERN BUOY              75 75  170/  6/  6 1012.3S         3/ 5
WILMETTE HARBOR            74 68  310/  4/  6   N/A           1/ 3
HARRISON CRIB              84     270/ 14/ 16   N/A
BURNHAM HARBOR             82     240/  6/ 13   N/A
CALUMET HARBOR             83                 1013.1R
BURNS HARBOR               79     260/ 10/ 18 1014.2R
MICHIGAN CITY              77     220/ 11/ 11   N/A
MICHIGAN CITY 6N           76 74  230/  8/ 10   N/A           1/ 2
ST. JOSEPH                 76 75  210/  8/ 10 1013.5R         1/ 4
$$

ILZ025>027-034>036-040-047-049-050-058-095>099-250100-
WEST-CENTRAL ILLINOIS

CITY           SKY/WX    TMP DP  RH WIND       PRES   REMARKS
QUINCY         CLEAR     85  75  72 SW6       29.97F HX  93
GALESBURG*     CLOUDY    78  74  86 CALM      29.97F HX  81
MACOMB*        CLOUDY    81  76  83 CALM      29.99S HX  87
JACKSONVILLE*  CLEAR     85  75  72 SW3       29.98F HX  94
PITTSFIELD*    CLOUDY    87  75  67 SW5       30.00S HX  96
$$

ILZ028>032-037-038-041>044-048-051>054-059>061-250100-
CENTRAL ILLINOIS

CITY           SKY/WX    TMP DP  RH WIND       PRES   REMARKS
PONTIAC        PTCLDY    81  73  77 SW6       29.99R HX  86
BLOOMINGTON    CLEAR     82  72  71 W8        30.01R HX  87
DECATUR        CLEAR     85  74  69 SW12      30.01R HX  92
PEORIA         CLOUDY    83  73  72 SW6       29.98S HX  89
6HR MIN TEMP:  83; 6HR MAX TEMP:  87;

LACON*         CLOUDY    80  70  72 SW3       29.97R HX  83
LINCOLN*       MOCLDY    85  77  75 CALM      29.99R HX  96
SPRINGFIELD    CLEAR     85  75  72 SW6       29.99S HX  93
6HR MIN TEMP:  85; 6HR MAX TEMP:  89;

TAYLORVILLE    CLEAR     82  74  78 W5        30.01R HX  88
6HR MIN TEMP:  82; 6HR MAX TEMP:  87;

$$

ILZ033-039-045-046-055>057-062-063-250100-
EAST-CENTRAL ILLINOIS

CITY           SKY/WX    TMP DP  RH WIND       PRES   REMARKS
CHAMPAIGN      PTCLDY    82  74  76 SW7       30.01R HX  88
RANTOUL*       PTCLDY    82  75  78 W3        30.00R HX  89
MATTOON        CLOUDY    84  75  74 SW8       30.01S HX  92
PARIS*         PTCLDY    83  77  83 SW3       30.02R HX  91
$$

ILZ079-100>102-250100-
SOUTHWEST ILLINOIS

CITY           SKY/WX    TMP DP  RH WIND       PRES   REMARKS
ALTON          MOCLDY    88  73  62 SW6       30.00S HX  96
BELLEVILLE     CLOUDY    87  76  70 S8        29.99R HX  97
CAHOKIA*       CLEAR     91  73  55 SW3       29.99S HX  99
SPARTA*        PTCLDY    86  77  73 S7        30.02S HX  97
$$

ILZ064>066-069>071-074>076-080>082-084>086-088>090-092>094-250100-
SOUTH-CENTRAL ILLINOIS

CITY           SKY/WX    TMP DP  RH WIND       PRES   REMARKS
CARBONDALE     CLEAR     86  72  62 SW10      30.02F HX  92
6HR MIN TEMP:  85; 6HR MAX TEMP:  90;

CAIRO*         CLEAR     85  77  77 S7        30.05R HX  96
EFFINGHAM*     TSTM      82  81  95 CALM      30.03R HX  95
MARION         PTCLDY    88  77  70 SW10      30.04S HX 100
MT. VERNON     CLEAR     86  73  66 SW9       30.03S HX  93
CENTRALIA*     PTCLDY    86  80  81 S5        30.01S HX 101
SALEM*         PTCLDY    87  78  73 S8        30.01S HX  99
METROPOLIS*    CLEAR     87  75  67 S6        30.06S HX  96
$$

ILZ067-068-072-073-078-083-087-091-250100-
SOUTHEAST ILLINOIS

CITY           SKY/WX    TMP DP  RH WIND       PRES   REMARKS
LAWRENCEVILLE  CLEAR     85  77  77 SW8       30.02S HX  95
FLORA*         MOCLDY    87  78  74 SW8       30.02S HX  99
FAIRFIELD*     CLEAR     85  77  78 S5        30.02R HX  95
HARRISBURG*    CLEAR     86  77  74 SW8       30.03S HX  97
ROBINSON*      MOCLDY    82  78  87 S5        30.03R HX  91
CARMI*         CLEAR     85  76  74 S7        30.03S HX  95
$$

ABBREVIATIONS USED IN REMARKS
   TC - TEMPERATURE IN CELSIUS
  WCI - WIND CHILL INDEX
   HX - HEAT INDEX
  VSB - VISIBILITY
$$





USA.gov is the U.S. government's official web portal to all federal, state and local government web resources and services.